Tracking 18673 objects as of 26-June-2017
HD Live streaming from Space Station
objects crossing your sky now

ESSA 1 (OT-3)

Track ESSA 1 (OT-3) now!
10-day predictions
ESSA 1 (OT-3) is classified as:


NORAD ID: 1982
Int'l Code: 1966-008A
Perigee: 684.3 km
Apogee: 802.0 km
Inclination: 97.8 °
Period: 99.5 minutes
Semi major axis: 7114 km
RCS: 0.7257 m2 (medium)
Launch date: February 3, 1966
Source: United States (US)
Launch site: AIR FORCE EASTERN TEST RANGE (AFETR)
Your satellite tracking list
Your tracking list is empty





NASA's NSSDC Master Catalog

Two Line Element Set (TLE):
1  1982U 66008A   17176.58694267 -.00000018 +00000-0 +60812-5 0  9991
2  1982 097.8186 028.9386 0082743 129.0475 231.8120 14.46823882683717
Source of the keplerian elements: AFSPC